TG9SRP-22 Weather Reports


Display with metric or nautical units.
time (UTC)temp
F
wind
direction
speed
MPH
gust
MPH
rain 1hr
in
rain 24hr
in
rain mn
in
humidity
%
barometer
mb
20260504081824 60 20 11.0 0.0 0.00 0.00 0.00 90 1016.0
20260504080823 54 343 3.0 5.0 0.00 0.00 0.00 10 1016.0
20260504045813 63 20 11.0 0.0 0.00 0.00 0.00 77 1018.0
20260504044812 65 20 11.0 0.0 0.00 0.00 0.00 77 1018.0
20260504043812 56 20 11.0 0.0 0.00 0.00 0.00 81 1018.0
20260504042811 58 20 11.0 0.0 0.00 0.00 0.00 81 1018.0
20260504041811 60 20 11.0 0.0 0.00 0.00 0.00 81 1018.0
20260504040810 62 20 11.0 0.0 0.00 0.00 0.00 81 1017.0
20260504035810 63 10 11.0 0.0 0.00 0.00 0.00 82 1017.0
20260504034809 56 334 3.0 4.0 0.00 0.00 0.00 10 1017.0
20260504033808 56 334 3.0 4.0 0.00 0.00 0.00 10 1017.0
20260504032808 56 346 3.0 5.0 0.00 0.00 0.00 92 1016.0
20260504031807 57 20 8.0 0.0 0.00 0.00 0.00 85 1016.0
20260504030807 59 20 8.0 0.0 0.00 0.00 0.00 83 1016.0
20260504025806 61 20 9.0 0.0 0.00 0.00 0.00 82 1016.0
20260504024806 57 30 5.0 0.0 0.00 0.00 0.00 86 1016.0
20260504023805 59 30 5.0 0.0 0.00 0.00 0.00 84 1016.0
20260504022804 61 30 6.0 0.0 0.00 0.00 0.00 82 1015.0
20260504021804 63 30 6.0 0.0 0.00 0.00 0.00 82 1015.0
20260504020803 58 350 8.0 0.0 0.00 0.00 0.00 91 1016.0
20260504015803 60 350 8.0 0.0 0.00 0.00 0.00 91 1016.0
20260504014802 60 350 8.0 0.0 0.00 0.00 0.00 91 1016.0
20260504013802 62 350 8.0 0.0 0.00 0.00 0.00 91 1016.0
20260504012801 64 350 8.0 0.0 0.00 0.00 0.00 90 1015.0
20260504011801 66 350 8.0 0.0 0.00 0.00 0.00 88 1015.0
20260504010800 68 350 9.0 0.0 0.01 0.00 0.00 86 1015.0
20260504005800 62 0 3.0 0.0 0.01 0.00 0.00 83 1015.0
20260504004759 64 0 3.0 0.0 0.00 0.00 0.00 80 1015.0
20260504003758 66 0 3.0 0.0 0.01 0.00 0.00 80 1015.0
20260504002758 68 0 3.0 0.0 0.00 0.00 0.00 80 1013.0
20260504001757 63 0 3.0 0.0 0.00 0.00 0.00 85 1013.0
20260504000757 65 0 3.0 0.0 0.00 0.00 0.00 83 1013.0
20260503235756 66 0 3.0 0.0 0.00 0.00 0.00 81 1013.0
20260503234756 68 0 3.0 0.0 0.00 0.00 0.00 79 1013.0
20260503233755 70 0 3.0 0.0 0.00 0.00 0.00 75 1013.0
20260503232754 72 0 3.0 0.0 0.00 0.00 0.00 73 1013.0
20260503231754 66 200 4.0 0.0 0.00 0.00 0.00 80 1013.0
20260503230753 68 200 4.0 0.0 0.00 0.00 0.00 77 1013.0
20260503225753 70 200 4.0 0.0 0.00 0.00 0.00 75 1013.0
20260503224752 71 200 4.0 0.0 0.00 0.00 0.00 76 1013.0
20260503223752 68 220 11.0 0.0 0.00 0.00 0.00 72 1013.0
20260503222751 68 220 11.0 0.0 0.00 0.00 0.00 72 1013.0
20260503221750 69 220 11.0 0.0 0.00 0.00 0.00 71 1013.0
20260503220750 70 220 11.0 0.0 0.01 0.00 0.00 68 1013.0
20260503215749 70 220 11.0 0.0 0.01 0.00 0.00 68 1013.0
20260503214749 72 220 11.0 0.0 0.01 0.00 0.00 63 1013.0
20260503213748 72 220 11.0 0.0 0.01 0.00 0.00 63 1013.0
20260503212748 66 51 1.0 6.0 0.05 0.00 0.00 10 1013.0
20260503211747 66 51 1.0 6.0 0.06 0.00 0.00 10 1013.0
20260503210747 66 51 1.0 6.0 0.06 0.00 0.00 10 1013.0
20260503205746 68 51 1.0 6.0 0.01 0.00 0.00 10 1013.0
20260503204746 68 51 1.0 6.0 0.01 0.00 0.00 10 1013.0
20260503203745 68 51 1.0 6.0 0.01 0.00 0.00 10 1013.0
20260503202745 68 99 2.0 7.0 0.00 0.00 0.00 10 1013.0
20260503201744 68 99 2.0 7.0 0.00 0.00 0.00 10 1013.0
20260503200743 68 99 2.0 7.0 0.00 0.00 0.00 10 1013.0
20260503195743 69 99 2.0 7.0 0.00 0.00 0.00 81 1013.0
20260503194742 72 20 13.0 0.0 0.00 0.00 0.00 66 1013.0
20260503193742 74 20 13.0 0.0 0.00 0.00 0.00 61 1013.0
20260503192741 75 20 13.0 0.0 0.00 0.00 0.00 50 1013.0
20260503191741 75 20 13.0 0.0 0.00 0.00 0.00 47 1013.0
20260503190740 75 20 13.0 0.0 0.00 0.00 0.00 47 1013.0
20260503185740 77 40 13.0 0.0 0.00 0.00 0.00 47 1013.0
20260503184739 79 40 13.0 0.0 0.00 0.00 0.00 47 1013.0
20260503183739 74 94 3.0 6.0 0.00 0.00 0.00 71 1014.0
20260503182738 75 40 13.0 0.0 0.00 0.00 0.00 51 1014.0
20260503181738 77 40 13.0 0.0 0.00 0.00 0.00 51 1014.0
20260503180737 79 40 13.0 0.0 0.00 0.00 0.00 47 1014.0
20260503175736 75 40 9.0 0.0 0.00 0.00 0.00 50 1014.0
20260503174736 77 40 9.0 0.0 0.00 0.00 0.00 50 1014.0
20260503173735 76 40 9.0 0.0 0.00 0.00 0.00 58 1014.0
20260503172735 75 40 9.0 0.0 0.00 0.00 0.00 54 1015.0
20260503171734 76 40 9.0 0.0 0.00 0.00 0.00 52 1015.0
20260503170734 77 40 9.0 0.0 0.00 0.00 0.00 50 1015.0
20260503150726 72 30 6.0 0.0 0.00 0.00 0.00 57 1016.0
20260503130720 58 360 11.0 0.0 0.00 0.00 0.00 87 1016.0
20260503110713 54 20 15.0 0.0 0.00 0.00 0.00 90 1016.0